Toronto, Ontario

7:50 AM EDT on September 24, 2017 (GMT -0400)
Toronto

Weather History for CYTZ - December, 2013

Change the Weather History Date:

Monday, December 16, 2013

  Actual Average Record
Temperature  
Mean Temperature 12 °F -  
Max Temperature 19 °F 32 °F 48 °F (2012)
Min Temperature 6 °F 21 °F 6 °F (2013)
Degree Days  
Heating Degree Days 52    
Moisture  
Dew Point 5 °F    
Average Humidity 71    
Maximum Humidity 86    
Minimum Humidity 36    
Precipitation  
Precipitation 0.00 in 0.08 in - ()
Sea Level Pressure  
Sea Level Pressure 30.05 in    
Wind  
Wind Speed 7 mph ()    
Max Wind Speed 13 mph    
Max Gust Speed 17 mph    
Visibility 7.7 miles    
Events Snow    
Averages and records for this station are not official NWS values.
T = Trace of Precipitation, MM = Missing Value Source: Averaged Metar Reports

Daily Weather History Graph

Daily Weather History Graph

Search for Another Location

Airport or City:

Trip Planner

Search our weather history database for the weather conditions in past years. The results will help you decide how hot, cold, wet, or windy it might be!

Date:

Astronomy

Dec. 16, 2013 Rise Set
Actual Time 7:44 AM EST 4:41 PM EST
Civil Twilight 7:12 AM EST 5:14 PM EST
Nautical Twilight 6:35 AM EST 5:50 PM EST
Astronomical Twilight 6:00 AM EST 6:25 PM EST
Moon 4:32 PM EST (12/16) 6:50 AM EST (12/16)
Length of Visible Light 10h 02m
Length of Day
8h 56m
Full, 100% of the Moon is Illuminated
Dec 16
Full
Dec 17
Full
Dec 25
Last Quarter
Jan 1
New
Jan 7
First Quarter

Hourly Weather History & Observations

Time (EST) Temp. Windchill Dew Point Humidity Pressure Visibility Wind Dir Wind Speed Gust Speed Precip Events Conditions
12:00 AM 17.6 °F 6.4 °F 14.0 °F 86% 29.89 in 2.2 mi NW 9.2 mph - N/A Snow Light Snow
12:10 AM 17.6 °F 5.7 °F 14.0 °F 86% 29.90 in 1.8 mi NW 10.4 mph - N/A Snow Light Snow
12:37 AM 15.8 °F 2.7 °F 12.2 °F 86% 29.91 in 2.0 mi NNW 11.5 mph - N/A Snow Light Snow
12:49 AM 15.8 °F 3.4 °F 12.2 °F 86% 29.91 in 3.0 mi NNW 10.4 mph - N/A Snow Light Snow
1:00 AM 16 °F - 11 °F 74% 29.91 in 4 mi NNW 9.2 mph - - Snow Light Snow
1:00 AM 15.8 °F 4.2 °F 12.2 °F 86% 29.91 in 4.0 mi NNW 9.2 mph - N/A Snow Light Snow
1:06 AM 15.8 °F 4.2 °F 10.4 °F 79% 29.92 in 5.0 mi NNW 9.2 mph - N/A Snow Light Snow
1:08 AM 15.8 °F 4.2 °F 10.4 °F 79% 29.92 in 6.0 mi NNW 9.2 mph - N/A Snow Light Snow
1:41 AM 14.0 °F 1.2 °F 8.6 °F 79% 29.93 in 9.0 mi NNW 10.4 mph - N/A   Clear
2:00 AM 14.0 °F 2.0 °F 6.8 °F 73% 29.93 in 9.0 mi NNW 9.2 mph - N/A   Clear
3:00 AM 12.2 °F -0.2 °F 5.0 °F 73% 29.96 in 9.0 mi NNW 9.2 mph - N/A   Clear
3:06 AM 12.2 °F -0.2 °F 5.0 °F 73% 29.97 in 5.0 mi NW 9.2 mph - N/A   Haze
3:07 AM 12.2 °F -0.2 °F 5.0 °F 73% 29.97 in 5.0 mi NW 9.2 mph - N/A Snow Light Snow
3:16 AM 10.4 °F -0.4 °F 3.2 °F 73% 29.97 in 9.0 mi WNW 6.9 mph - N/A Snow Light Snow
3:17 AM 10.4 °F -0.4 °F 3.2 °F 73% 29.97 in 9.0 mi WNW 6.9 mph - N/A   Clear
4:00 AM 10.4 °F -1.5 °F 3.2 °F 73% 29.99 in 9.0 mi WNW 8.1 mph - N/A   Clear
5:00 AM 8.6 °F 0.1 °F 1.4 °F 73% 30.00 in 9.0 mi West 4.6 mph - N/A   Clear
6:00 AM 6.8 °F -5.9 °F 1.4 °F 79% 30.03 in 9.0 mi West 8.1 mph - N/A   Clear
6:32 AM 6.8 °F -3.5 °F 1.4 °F 79% 30.03 in 9.0 mi NW 5.8 mph - N/A Snow Light Snow
6:41 AM 6.8 °F -2.0 °F 1.4 °F 79% 30.04 in 5.0 mi NW 4.6 mph - N/A Snow Light Snow
6:43 AM 6.8 °F -2.0 °F 1.4 °F 79% 30.04 in 6.0 mi NW 4.6 mph - N/A Snow Light Snow
6:45 AM 6.8 °F -2.0 °F 1.4 °F 79% 30.03 in 6.0 mi NW 4.6 mph - N/A   Haze
6:50 AM 8.6 °F 2.0 °F 3.2 °F 79% 30.04 in 5.0 mi NW 3.5 mph - N/A   Haze
6:51 AM 8.6 °F 2.0 °F 3.2 °F 79% 30.04 in 7.0 mi NW 3.5 mph - N/A   Scattered Clouds
6:56 AM 8.6 °F - 3.2 °F 79% 30.03 in 6.0 mi NW 2.3 mph - N/A Snow Light Snow
7:00 AM 8 °F - 3 °F 70% 30.04 in 10 mi WNW 2.3 mph - - Snow Light Snow
7:00 AM 8.6 °F - 3.2 °F 79% 30.04 in 9.0 mi Variable 2.3 mph - N/A Snow Light Snow
7:21 AM 8.6 °F 0.1 °F 3.2 °F 79% 30.04 in 9.0 mi West 4.6 mph - N/A   Partly Cloudy
8:00 AM 6.8 °F - 1.4 °F 79% 30.06 in 9.0 mi Calm Calm - N/A   Clear
9:00 AM 10.4 °F - 5.0 °F 79% 30.09 in 9.0 mi Calm Calm - N/A   Mostly Cloudy
10:00 AM 14.0 °F 2.9 °F 5.0 °F 67% 30.12 in 9.0 mi WNW 8.1 mph - N/A   Clear
10:18 AM 14.0 °F -0.2 °F 5.0 °F 67% 30.13 in 9.0 mi WNW 12.7 mph - N/A Snow Light Snow
10:27 AM 14.0 °F 0.5 °F 5.0 °F 67% 30.13 in 9.0 mi WNW 11.5 mph - N/A   Clear
10:30 AM 14.0 °F -0.2 °F 5.0 °F 67% 30.13 in 9.0 mi WNW 12.7 mph - N/A Snow Light Snow
10:58 AM 14.0 °F 0.5 °F 3.2 °F 62% 30.13 in 9.0 mi NNW 11.5 mph - N/A   Clear
11:00 AM 14.0 °F 0.5 °F 3.2 °F 62% 30.13 in 9.0 mi NW 11.5 mph - N/A   Clear
12:00 PM 15.8 °F 4.2 °F 1.4 °F 53% 30.13 in 9.0 mi NW 9.2 mph 17.3 mph N/A   Clear
1:00 PM 18 °F - 3 °F 36% 30.13 in 10 mi NW 9.2 mph - -  
1:00 PM 17.6 °F 7.3 °F 3.2 °F 53% 30.13 in 9.0 mi WNW 8.1 mph - N/A   Clear
2:00 PM 19.4 °F 6.6 °F 5.0 °F 54% 30.13 in 9.0 mi West 12.7 mph - N/A   Clear
3:00 PM 19.4 °F 7.9 °F 5.0 °F 54% 30.13 in 9.0 mi West 10.4 mph - N/A   Clear
4:00 PM 19.4 °F 7.2 °F 5.0 °F 54% 30.15 in 9.0 mi WNW 11.5 mph - N/A   Clear
5:00 PM 17.6 °F 7.3 °F 3.2 °F 53% 30.17 in 9.0 mi West 8.1 mph - N/A   Clear
6:00 PM 15.8 °F 6.1 °F 5.0 °F 62% 30.19 in 9.0 mi NW 6.9 mph - N/A   Clear
7:00 PM 15 °F - 5 °F 51% 30.19 in 10 mi WNW 5.8 mph - -  
7:00 PM 15.8 °F 8.6 °F 5.0 °F 62% 30.19 in 9.0 mi WNW 4.6 mph - N/A   Clear
8:00 PM 15.8 °F 10.2 °F 5.0 °F 62% 30.20 in 9.0 mi NNW 3.5 mph - N/A   Mostly Cloudy
9:00 PM 12.2 °F - 5.0 °F 73% 30.20 in 9.0 mi Variable 2.3 mph - N/A   Mostly Cloudy
10:00 PM 12.2 °F 0.7 °F 5.0 °F 73% 30.17 in 9.0 mi ENE 8.1 mph - N/A   Clear
11:00 PM 15.8 °F 5.1 °F 8.6 °F 73% 30.17 in 9.0 mi NE 8.1 mph - N/A   Clear
11:53 PM 15.8 °F 5.1 °F 10.4 °F 79% 30.15 in 9.0 mi NE 8.1 mph - N/A Snow Light Snow